Showing default

GONETS D1 7, 27058

Orbit data source: Space-Track

GONETS D1 7, 27058 is a payload satellite owned by Gonets (CIS) in LEO that was launched on Fri, 28 Dec 2001 UTC via a TSIKLON-3 launch vehicle from the Plesetsk Missile And Space Complex (PKMTR). Payload-class satellites include a variety of spacecraft equipped with specific instruments for various scientific and technological missions. These include communications satellites like Starlink; space stations such as the ISS; scientific satellites like the Hubble; Earth observation satellites from companies like Planet Labs, Umbra, and HawkEye 360; GPS; miniature CubeSats for education and research; and military/defense satellites.

Loading next visibility...
Identifier
27058, 2001-058D
Orbit
LEO
Country
Flag of CISCIS
Related business
Manufacturer
NPO PM
Mission
Non-operational Civil Communications
Bus & Motor
STRELA-3, Unknown motor
Mass
225 kg wet, 225 kg dry
Launch date (UTC)
2001-12-28 (24 years ago)
Launch vehicle
TSIKLON-3
Launch site
Plesetsk Missile And Space Complex (PKMTR)
Object type
Payload
Rocket body
Debris
Shape & HBR
Cyl + 1 Ant, 3.5 m
Radar Cross Section
1.798 m², Medium (>0.1 m² and < 1m²)

Expand to show TLE details & history
Last TLE update: 8 hours ago

TLE from 8 hours ago
0 GONETS D1 7
1 27058U 01058D   25259.25184109  .00000027  00000-0  93296-4 0  9991
2 27058  82.5389  17.5828 0002175 244.7705 115.3161 12.62078285 92431
Epoch: 2025-09-16T06:02Z
TLE epoch observation values (Epoch: 2025-09-16T06:02:39.07Z)
Latitude
0.00004°
Longitude
-68.5248°
Altitude
1,417.832 km
Speed
7.151 km/s
True Right ascension
01h 10m 19s
True Declination
0° 00' 00"
Sunlit
Object was in full shadow at epoch
Visualization orbit readout
Latitude
Unknown
Longitude
Unknown
Altitude
Unknown
Speed
Unknown
Apparent Right ascension
Unknown
Apparent Declination
Unknown
Sunlit
N/A
Visualization observer readout
Local Sidereal Time
06:34:05
Azimuth
Unknown
Elevation
Unknown
Doppler factor
Unknown
Orbital elements
Apogee altitude
1,413.395 km
Perigee altitude
1,410.006 km
Semi-major axis
7,789.837 km
Eccentricity
0.00022
Inclination
82.5389°
RAAN
17.5828°
Arg. of periapsis
244.7705°
True anomaly
115.33863°
Mean anomaly
115.3161°
Eccentric anomaly
115.32736°
Mean motion
3.15683 °/min
Orbital period
114.04 mins
BSTAR
0.000093296
Loading maneuver chart data...
Computing Atmospheric mass density...
Loading historical data...
Loading historical data...
Loading historical data...
Loading historical data...
Loading historical data...
Loading historical data...
Loading historical data...

Documentation

Showing up to 5 results
|